Palmer, AK (99645)

6:03 PM AKDT on August 20, 2017 (GMT -0800)
Gold-Key Estates | | Change Station

Elev 203 ft 61.62 °N, 149.10 °W | Updated 3 minutes ago

Overcast
Overcast
52.9 °F
Feels Like 52.9 °F
N
2.0
Wind Variable Wind from NNE
Gusts 3.0 mph

Today
High -- | Low -- °F
--% Chance of Precip.
Yesterday
High -- | Low -- °F
Precip. -- in
Pressure 29.63 in
Visibility 10.0 miles
Clouds Scattered Clouds 5500 ft
Overcast 8000 ft
Dew Point 52 °F
Humidity 96%
Rainfall 0.00 in
Snow Depth Not available.
6:17 AM 9:40 PM
Waning Crescent, 1% visible
METAR PAAQ 210153Z 06003KT 10SM SCT055 OVC080 12/11 A2962 RMK AO2 RAB05E29 SLP032 P0000 T01220106 $
Pressure 29.63 in
Visibility 10.0 miles
Clouds Scattered Clouds 5500 ft
Overcast 8000 ft
Dew Point 52 °F
Humidity 96%
Rainfall 0.00 in
Snow Depth Not available.
6:17 AM 9:40 PM
Waning Crescent, 1% visible
METAR PAAQ 210153Z 06003KT 10SM SCT055 OVC080 12/11 A2962 RMK AO2 RAB05E29 SLP032 P0000 T01220106 $

Get Severe Weather Alerts

Thanks for signing up!

Be on the lookout for a verification email in your inbox.

You'll start receiving the daily forecast at 6 AM.

×

10-Day Weather Forecast

Almanac

Astronomy

Aug. 20, 2017 Rise Set
Actual Time
Civil Twilight
Nautical Twilight
Astronomical Twilight
Moon
Length of Visible Light
Length of Day
Tomorrow will be .
, % of the Moon is Illuminated

Today's Extremes

State Highs State Lows

Community

WunderPhotos

Category 6

Welcome to Category 6. This is the collective home for Weather Underground's featured writeups by Dr. Jeff Masters (right), Bob Henson (left), Chris Burt, and other regular contributors.

Nearby

Air Quality

  Air Quality AQ Index Pollutant
Not available.

Snow Depth

Station Depth Elevation

Earthquake Activity

City Distance Mag. Time & Date
Minimum magnitude displayed is 2.5.

Coastal Water Temperatures

Place Temperature

Stations

Nearby Weather Stations

Station Location Temp. Windchill Dew Point Humidity Wind Precip. Elev Updated Type
                   

Watches & Warnings

There are currently no watches in effect.